Location: Newark
(39.6172°N, 96.8533°W)
Time: 20:48:59
(UTC+00:00)

Envisat - Pass Details

Date: 26 January 2020
Orbit: 764 x 766 km, 98.1° (Epoch: 22 February)

Event Time Altitude Azimuth Distance (km) Brightness Sun altitude
Rises 12:16:48 0° 25° (NNE) 3,238 6.4 -16.2°
Reaches altitude 10° 12:19:27 10° 37° (NE) 2,307 5.8 -15.7°
Maximum altitude 12:23:44 27° 95° (E) 1,439 5.3 -14.9°
Drops below altitude 10° 12:27:59 10° 153° (SSE) 2,293 6.0 -14.1°
Sets 12:30:36 0° 165° (SSE) 3,214 6.6 -13.6°
